Regional Weather Roundup
Issued by NWS

Home | Current Version | Previous Version | Graphics & Text | Print | Product List | Glossary On
Versions: 1 2 3 4 5 6 7 8 9 10 11 12 13 14 15 16 17 18 19 20 21 22 23 24 25 26 27 28 29 30 31 32 33 34 35 36 37 38 39 40 41 42 43 44 45 46 47 48 49 50
000
ASUS43 KIND 240459
RWRIN

WEATHER ROUNDUP FOR INDIANA
NATIONAL WEATHER SERVICE INDIANAPOLIS IN
100 AM EDT WED AUG 24 2016

NOTE: "FAIR" INDICATES FEW OR NO CLOUDS BELOW 12,000 FEET WITH NO
SIGNIFICANT WEATHER AND/OR OBSTRUCTIONS TO VISIBILITY.

* - STATION DOES NOT REPORT WEATHER SUCH AS PRECIPITATION OR FOG.

+ - STATION NOT QUALITY CONTROLLED BY THE NATIONAL WEATHER SERVICE.
    USE DATA WITH CAUTION...ESPECIALLY DEWPOINT AND RELATIVE
    HUMIDITY OBSERVATIONS.

INZ001>003-010>013-019-020-240600-
NORTHWEST INDIANA

CITY           SKY/WX    TMP DP  RH WIND       PRES   REMARKS
KNOX *+        CLEAR     63  46  55 SE5       30.14S
MONTICELLO +   CLOUDY    70  59  69 SE3       30.13F
RENSSELAER +   CLEAR     66  63  88 SE3       30.13S

$$

LMZ046-743>745-240600-
SOUTHERN LAKE MICHIGAN

STATION/POSITION TIME  TEMP    WIND        PRES    WAVE
                       AIR SEA DIR/SP/G            HT
                 (UTC) (F)     (DEG/KT/KT) (MB)    (FT)
BURNS HARBOR     0401   73     170/  7/ 16 1020.0F
MICHIGAN CITY    0400   72     140/ 10/ 12   N/A
5NW MICH CITY    0400   72 73  170/ 10/ 12   N/A     1

$$

INZ004-005-014>016-021>024-240600-
NORTH CENTRAL INDIANA

CITY           SKY/WX    TMP DP  RH WIND       PRES   REMARKS
GOSHEN         PTCLDY    67  59  75 SE8       30.15F
SOUTH BEND     PTCLDY    68  61  78 S9        30.14F

$$

INZ006>009-017-018-025>027-240600-
NORTHEAST INDIANA

CITY           SKY/WX    TMP DP  RH WIND       PRES   REMARKS
ANGOLA *+      CLEAR     63  59  88 CALM      30.18F
FORT WAYNE     CLOUDY    65  60  84 S6        30.18F

$$

INZ028-029-035-036-043>045-051>053-240600-
WEST CENTRAL INDIANA

CITY           SKY/WX    TMP DP  RH WIND       PRES   REMARKS
CRAWFORDSVL +  MOCLDY    65  65 100 SE5       30.15F
GREENCASTLE +  CLOUDY    68  68 100 CALM      30.17F
LAFAYETTE      CLOUDY    69  64  84 SE3       30.12F
TERRE HAUTE    CLOUDY    71  64  78 S7        30.15S

$$

INZ030>032-037>040-046>048-054>057-064-065-240600-
CENTRAL INDIANA

CITY           SKY/WX    TMP DP  RH WIND       PRES   REMARKS
INDIANAPOLIS   CLOUDY    70  63  78 SE9       30.15F
-EAGLE CREEK   CLOUDY    72  62  71 SE6       30.16F
KOKOMO *+      MOCLDY    66  59  77 S6        30.17S
MT COMFORT *+  CLOUDY    66  63  88 SE6       30.18F
SHELBYVILLE    PTCLDY    68  62  81 SE6       30.18S

$$

INZ033-034-041-042-049-050-058-059-240600-
EAST CENTRAL INDIANA

CITY           SKY/WX    TMP DP  RH WIND       PRES   REMARKS
MUNCIE         PTCLDY    69  62  78 S5        30.19F

$$

INZ060-061-067>069-081>083-085>088-240600-
SOUTHWEST INDIANA

CITY           SKY/WX    TMP DP  RH WIND       PRES   REMARKS
EVANSVILLE     CLOUDY    74  66  76 SE5       30.16S
HUNTINGBURG *+ CLEAR     70  64  83 SE5       30.17F

$$

INZ062-063-066-070>080-084-089>092-240600-
SOUTH CENTRAL AND SOUTHEAST INDIANA

CITY           SKY/WX    TMP DP  RH WIND       PRES   REMARKS
BLOOMINGTON    CLEAR     69  65  86 S5        30.18S
MADISON *+     CLOUDY    68  64  88 CALM      30.22F

$$





USA.gov is the U.S. government's official web portal to all federal, state and local government web resources and services.